Weather History for Pecos, TX

Change the Weather History Date:

Monday, October 21, 2013

  Actual Average Record
Temperature  
Mean Temperature 56 °F -  
Max Temperature 71 °F 77 °F 94 °F (1946)
Min Temperature 42 °F 46 °F 29 °F (1976)
Degree Days  
Heating Degree Days 8    
Growing Degree Days 6 (Base 50)    
Moisture  
Dew Point 35 °F    
Average Humidity 44    
Maximum Humidity 61    
Minimum Humidity 31    
Precipitation  
Precipitation 0.00 in - - ()
Sea Level Pressure  
Sea Level Pressure 30.07 in    
Wind  
Wind Speed 8 mph (North)    
Max Wind Speed 20 mph    
Max Gust Speed 24 mph    
Visibility 10 miles    
Events      
Averages and records for this station are not official NWS values.
T = Trace of Precipitation, MM = Missing Value Source: NWS Daily Summary

Daily Weather History Graph

Daily Weather History Graph

Search for Another Location

Airport:

Trip Planner

Search our weather history database for the weather conditions in past years. The results will help you decide how hot, cold, wet, or windy it might be!

Date:

Astronomy

Oct. 21, 2013 Rise Set
Actual Time 8:01 AM CDT 7:15 PM CDT
Civil Twilight 7:36 AM CDT 7:39 PM CDT
Nautical Twilight 7:08 AM CDT 8:08 PM CDT
Astronomical Twilight 6:40 AM CDT 8:36 PM CDT
Moon 9:18 PM CDT (10/21) 10:29 AM CDT (10/21)
Length of Visible Light 12h 02m
Length of Day
11h 13m
Waning Gibbous, 92% of the Moon is Illuminated
Oct 21
Waning Gibbous
Oct 26
Last Quarter
Nov 3
New
Nov 9
First Quarter
Nov 17
Full

Hourly Weather History & Observations

Time (CDT) Temp. Windchill Dew Point Humidity Pressure Visibility Wind Dir Wind Speed Gust Speed Precip Events Conditions
12:15 AM 48.2 °F - 27.1 °F 44% 29.89 in 10.0 mi NE 8.1 mph - N/A   Clear
12:35 AM 47.5 °F - 27.5 °F 46% 29.90 in 10.0 mi East 6.9 mph - N/A   Clear
12:55 AM 48.2 °F - 27.5 °F 45% 29.90 in 10.0 mi ESE 4.6 mph - N/A   Clear
1:15 AM 48.0 °F - 27.3 °F 45% 29.90 in 10.0 mi ESE 5.8 mph - N/A   Clear
1:35 AM 48.7 °F - 28.2 °F 45% 29.90 in 10.0 mi SE 3.5 mph - N/A   Clear
1:55 AM 48.4 °F - 28.4 °F 46% 29.91 in 10.0 mi Calm Calm - N/A   Clear
2:15 AM 49.3 °F - 28.8 °F 45% 29.91 in 10.0 mi Calm Calm - N/A   Clear
2:35 AM 46.0 °F 44.8 °F 27.7 °F 49% 29.91 in 10.0 mi SW 3.5 mph - N/A   Clear
2:55 AM 46.8 °F - 27.7 °F 47% 29.91 in 10.0 mi WSW 3.5 mph - N/A   Clear
3:15 AM 43.9 °F - 27.7 °F 53% 29.91 in 10.0 mi Calm Calm - N/A   Clear
3:35 AM 44.8 °F 41.0 °F 27.5 °F 51% 29.91 in 10.0 mi SW 6.9 mph - N/A   Clear
3:55 AM 42.4 °F - 27.9 °F 56% 29.91 in 10.0 mi Calm Calm - N/A   Clear
4:15 AM 46.6 °F - 27.0 °F 46% 29.93 in 10.0 mi NNW 12.7 mph 21.9 mph N/A   Clear
4:35 AM 47.8 °F - 26.6 °F 44% 29.93 in 10.0 mi WNW 4.6 mph - N/A   Clear
4:55 AM 45.7 °F 40.2 °F 26.2 °F 47% 29.94 in 10.0 mi NW 11.5 mph - N/A   Clear
5:15 AM 49.1 °F - 25.3 °F 40% 29.96 in 10.0 mi NW 15.0 mph - N/A   Clear
5:35 AM 49.8 °F - 33.1 °F 53% 29.99 in 10.0 mi NW 17.3 mph - N/A   Clear
5:55 AM 50.9 °F - 29.8 °F 44% 30.00 in 10.0 mi NNW 16.1 mph - N/A   Clear
6:15 AM 50.9 °F - 29.7 °F 44% 30.02 in 10.0 mi NW 17.3 mph - N/A   Clear
6:35 AM 50.4 °F - 30.2 °F 46% 30.03 in 10.0 mi NW 15.0 mph - N/A   Clear
6:55 AM 50.4 °F - 31.1 °F 48% 30.05 in 10.0 mi NW 17.3 mph - N/A   Clear
7:15 AM 50.0 °F - 32.0 °F 50% 30.06 in 10.0 mi NW 16.1 mph - N/A   Clear
7:35 AM 49.6 °F - 32.5 °F 52% 30.07 in 10.0 mi NW 13.8 mph - N/A   Clear
7:55 AM 49.3 °F - 33.8 °F 55% 30.10 in 10.0 mi WNW 10.4 mph - N/A   Clear
8:15 AM 49.1 °F - 34.5 °F 57% 30.11 in 10.0 mi WNW 11.5 mph - N/A   Clear
8:35 AM 49.8 °F - 35.2 °F 57% 30.12 in 10.0 mi WNW 11.5 mph - N/A   Clear
8:55 AM 51.3 °F - 36.1 °F 56% 30.12 in 10.0 mi WNW 15.0 mph 19.6 mph N/A   Clear
9:15 AM 52.7 °F - 36.5 °F 54% 30.14 in 10.0 mi NW 16.1 mph - N/A   Clear
9:35 AM 54.3 °F - 37.0 °F 52% 30.15 in 10.0 mi NW 17.3 mph 21.9 mph N/A   Clear
9:55 AM 55.0 °F - 36.7 °F 50% 30.16 in 10.0 mi NW 19.6 mph 24.2 mph N/A   Clear
10:15 AM 55.8 °F - 36.5 °F 48% 30.17 in 10.0 mi NNW 15.0 mph 23.0 mph N/A   Clear
10:35 AM 57.2 °F - 36.9 °F 47% 30.17 in 10.0 mi NNW 16.1 mph 23.0 mph N/A   Clear
10:55 AM 57.7 °F - 37.0 °F 46% 30.17 in 10.0 mi NNW 15.0 mph 18.4 mph N/A   Clear
11:15 AM 58.5 °F - 36.9 °F 45% 30.17 in 10.0 mi NNW 18.4 mph - N/A   Clear
11:35 AM 60.4 °F - 37.4 °F 42% 30.17 in 10.0 mi NNW 16.1 mph - N/A   Clear
11:55 AM 61.2 °F - 37.6 °F 42% 30.16 in 10.0 mi NNW 11.5 mph 19.6 mph N/A   Clear
12:15 PM 61.7 °F - 37.8 °F 41% 30.17 in 10.0 mi NNW 9.2 mph 17.3 mph N/A   Clear
12:35 PM 63.3 °F - 37.9 °F 39% 30.16 in 10.0 mi NW 8.1 mph - N/A   Clear
12:55 PM 63.5 °F - 38.3 °F 39% 30.16 in 10.0 mi NW 8.1 mph 17.3 mph N/A   Clear
1:15 PM 64.6 °F - 38.1 °F 38% 30.15 in 10.0 mi NW 9.2 mph 16.1 mph N/A   Clear
1:35 PM 65.3 °F - 38.8 °F 38% 30.14 in 10.0 mi North 12.7 mph - N/A   Clear
1:55 PM 66.2 °F - 38.8 °F 37% 30.12 in 10.0 mi North 15.0 mph 19.6 mph N/A   Clear
2:15 PM 66.9 °F - 38.8 °F 36% 30.12 in 10.0 mi NW 8.1 mph - N/A   Clear
2:35 PM 67.5 °F - 38.8 °F 35% 30.11 in 10.0 mi North 6.9 mph 16.1 mph N/A   Clear
2:55 PM 67.6 °F - 39.0 °F 35% 30.10 in 10.0 mi North 12.7 mph 16.1 mph N/A   Clear
3:15 PM 69.4 °F - 39.2 °F 33% 30.09 in 10.0 mi NW 9.2 mph 19.6 mph N/A   Clear
3:35 PM 68.5 °F - 39.2 °F 34% 30.09 in 10.0 mi NNW 12.7 mph 20.7 mph N/A   Clear
3:55 PM 69.8 °F - 39.4 °F 33% 30.09 in 10.0 mi North 8.1 mph 16.1 mph N/A   Clear
4:15 PM 70.2 °F - 39.2 °F 32% 30.09 in 10.0 mi North 8.1 mph 16.1 mph N/A   Clear
4:35 PM 70.9 °F - 39.0 °F 31% 30.09 in 10.0 mi North 12.7 mph - N/A   Clear
4:55 PM 71.1 °F - 39.2 °F 31% 30.08 in 10.0 mi NNE 9.2 mph - N/A   Clear
5:15 PM 70.9 °F - 38.8 °F 31% 30.08 in 10.0 mi NNE 6.9 mph - N/A   Clear
5:35 PM 70.7 °F - 38.5 °F 31% 30.09 in 10.0 mi NNE 5.8 mph - N/A   Clear
5:55 PM 70.2 °F - 38.7 °F 32% 30.08 in 10.0 mi North 6.9 mph - N/A   Clear
6:15 PM 69.8 °F - 38.3 °F 32% 30.09 in 10.0 mi NE 4.6 mph - N/A   Clear
6:35 PM 68.9 °F - 38.3 °F 33% 30.09 in 10.0 mi NNE 5.8 mph - N/A   Clear
6:55 PM 67.8 °F - 37.9 °F 33% 30.09 in 10.0 mi NNE 5.8 mph - N/A   Clear
7:15 PM 66.0 °F - 37.6 °F 35% 30.10 in 10.0 mi NNE 4.6 mph - N/A   Clear
7:35 PM 64.4 °F - 37.4 °F 37% 30.11 in 10.0 mi NE 5.8 mph - N/A   Clear
7:55 PM 62.6 °F - 37.2 °F 39% 30.12 in 10.0 mi NE 4.6 mph - N/A   Clear
8:15 PM 60.8 °F - 37.4 °F 42% 30.13 in 10.0 mi NE 4.6 mph - N/A   Clear
8:35 PM 59.5 °F - 37.4 °F 44% 30.13 in 10.0 mi ENE 4.6 mph - N/A   Clear
8:55 PM 58.5 °F - 37.6 °F 46% 30.14 in 10.0 mi ENE 6.9 mph - N/A   Clear
9:15 PM 57.2 °F - 37.4 °F 48% 30.15 in 5.0 mi NE 6.9 mph - N/A   Haze
9:35 PM 56.3 °F - 37.8 °F 50% 30.16 in 7.0 mi ENE 5.8 mph - N/A   Clear
9:55 PM 55.4 °F - 37.9 °F 52% 30.16 in 5.0 mi ENE 5.8 mph - N/A   Haze
10:15 PM 54.5 °F - 38.1 °F 54% 30.16 in 4.0 mi ENE 4.6 mph - N/A   Haze
10:35 PM 54.5 °F - 38.5 °F 55% 30.17 in 7.0 mi ENE 4.6 mph - N/A   Clear
10:55 PM 54.1 °F - 38.8 °F 56% 30.19 in 10.0 mi NE 4.6 mph - N/A   Clear
11:15 PM 53.6 °F - 38.8 °F 57% 30.19 in 10.0 mi NE 4.6 mph - N/A   Clear
11:35 PM 53.1 °F - 38.7 °F 58% 30.19 in 7.0 mi ENE 3.5 mph - N/A   Clear
11:55 PM 52.5 °F - 39.2 °F 61% 30.20 in 7.0 mi NE 3.5 mph - N/A   Clear